Regional Weather Roundup
Issued by NWS Memphis, TN

Home | Current Version | Previous Version | Text Only | Print | Product List | Glossary On
Versions: 1 2 3 4 5 6 7 8 9 10 11 12 13 14 15 16 17 18 19 20 21 22 23 24 25 26 27 28 29 30 31 32 33 34 35 36 37 38 39 40 41 42 43 44 45 46 47 48 49 50
000
ASUS44 KMEG 220710
RWRMEG
MEMPHIS CWA HOURLY WEATHER ROUNDUP
NATIONAL WEATHER SERVICE MEMPHIS TN
200 AM CDT TUE JUL 22 2014

...WEST TENNESSEE...

CITY           SKY/WX    TMP DP  RH WIND       PRES   REMARKS
MEMPHIS INTL   CLEAR     75  65  70 CALM      30.07R
NWS MEMPHIS      N/A     68 N/A N/A MISG        N/A
JACKSON        CLEAR     67  65  93 CALM      30.06S FOG
LEXINGTON      CLEAR     68  66  94 CALM      30.05S
SAVANNAH       CLEAR     69  69 100 CALM      30.06S
DYERSBURG      CLEAR     68  59  73 CALM      30.07S
UNION CITY     CLEAR     66  66 100 CALM      30.06S
PARIS          CLEAR     67  63  87 CALM      30.07S


...EASTERN ARKANSAS...

CITY           SKY/WX    TMP DP  RH WIND       PRES   REMARKS
JONESBORO      CLEAR     66  63  90 CALM      30.07R
WEST MEMPHIS   CLEAR     69  69 100 CALM      30.05R FOG
BATESVILLE     CLEAR     68  66  94 CALM      30.08S
NEWPORT        CLEAR     70  68  93 W7        30.08S
WALNUT RIDGE   CLEAR     70  48  46 CALM      30.07R
BLYTHEVILLE    CLEAR     69  67  93 NW3       30.07R
SEARCY         CLEAR     68  67  96 CALM      30.08S FOG
STUTTGART      CLEAR     72  68  88 N3        30.07S
PINE BLUFF     CLEAR     70  68  93 CALM      30.07R
MONTICELLO     CLEAR     69  67  93 CALM      30.06R


...NORTH MISSISSIPPI...

CITY           SKY/WX    TMP DP  RH WIND       PRES   REMARKS
TUPELO         CLEAR     73  69  87 CALM      30.04F
OLIVE BRANCH   CLEAR     70  70 100 CALM      30.07R
CLARKSDALE     CLEAR     68  68 100 CALM      30.06S
CORINTH        FOG       70  68  94 CALM      30.05S VSB 3/4
GRENADA        CLEAR     68  66  94 CALM      30.05S
GREENWOOD      CLEAR     70  68  93 CALM      30.04S FOG
COLUMBUS       PTCLDY    73  72  99 N1        30.04S
STARKVILLE     FAIR      70  68  94 CALM      30.03F
GOLDEN TRIANGL CLOUDY    72  68  88 N6        30.04S


...SOUTHEAST MISSOURI...

CITY           SKY/WX    TMP DP  RH WIND       PRES   REMARKS
WEST PLAINS    CLEAR     69  63  81 S3        30.11S
POPLAR BLUFF   CLEAR     65  62  90 CALM      30.06S FOG
CAPE GIRARDEAU CLEAR     66  64  93 CALM      30.07R FOG


...NORTHWEST ALABAMA...

CITY           SKY/WX    TMP DP  RH WIND       PRES   REMARKS
MUSCLE SHOALS  PTCLDY    73  70  88 CALM      30.06F FOG


...MIDDLE TENNESSEE...

CITY           SKY/WX    TMP DP  RH WIND       PRES   REMARKS
NASHVILLE      PTCLDY    74  71  91 CALM      30.07S
CLARKSVILLE    CLEAR     70  66  87 CALM      30.06S
DICKSON        CLEAR     68  66  94 CALM      30.07S
COLUMBIA       MOCLDY    72  72 100 CALM      30.06S
LEWISBURG      PTCLDY    69  67  93 CALM      30.07S


...WESTERN KENTUCKY...

CITY           SKY/WX    TMP DP  RH WIND       PRES   REMARKS
PADUCAH        CLEAR     68  65  90 CALM      30.06F
FORT CAMPBELL  CLEAR     71  68  92 CALM      30.06S


...CENTRAL ARKANSAS...

CITY           SKY/WX    TMP DP  RH WIND       PRES   REMARKS
LITTLE ROCK    CLEAR     71  67  87 CALM      30.07S


SKY/WX REPORTED AS FAIR MEANS FEW OR NO CLOUDS BELOW
12 THOUSAND FEET.




USA.gov is the U.S. government's official web portal to all federal, state and local government web resources and services.